Home   Weather   Harrisburg   Past weeks
Flag for USA

Past Weather in Harrisburg, Pennsylvania, USA — Yesterday and Last 2 Weeks

Now
56 °F

Clear.


Feels Like: 54 °F
Forecast: 56 / 48 °F
Wind: 7 mph from South

Location: Capital City Airport

Current Time: Oct 20, 2019 at 12:14:41 am

Latest Report: Oct 19, 2019 at 10:56 pm


Visibility: 10 mi

Pressure: 30.01 "Hg

Humidity: 62%

Dew Point: 43 °F

Location of HarrisburgLocation

Past Weather in Harrisburg — Graph

°F

Harrisburg Temperature Yesterday

Maximum temperature yesterday: 64 °F (at 2:56 pm)
Minimum temperature yesterday: 38 °F (at 6:56 am)
Average temperature yesterday: 52 °F

High & Low Weather Summary for the Past Weeks

 TemperatureHumidityPressure
High75 °F (Oct 10, 2:56 pm)90% (Oct 6, 2:56 pm)30.46 "Hg (Oct 6, 2:56 pm)
Low38 °F (Oct 19, 6:56 am)27% (Oct 14, 1:56 pm)29.47 "Hg (Oct 17, 3:56 am)
Average59 °F63%30.07 "Hg
* Reported Oct 4 10:56 pm — Oct 19 10:56 pm, Harrisburg. Weather by CustomWeather, © 2019

Note: Actual official high and low records may vary slightly from our data, if they occured in-between our weather recording intervals... More about our weather records

Advertising

Harrisburg Weather History for the Previous 24 Hours

Scroll right to see more
 ConditionsComfort  
Time TempWeatherWind HumidityBarometerVisibility
10:56 pm
Sat, Oct 19
56 °FClear.7 mph62%30.01 "Hg10 mi
9:56 pm57 °FClear.8 mph58%30.01 "Hg10 mi
8:56 pm55 °FClear.3 mph64%30.02 "Hg10 mi
7:56 pm56 °FClear.No wind62%30.01 "Hg10 mi
6:56 pm58 °FClear.No wind58%30.01 "Hg10 mi
5:56 pm61 °FSunny.3 mph50%30.01 "Hg10 mi
4:56 pm64 °FSunny.3 mph40%30.01 "Hg10 mi
3:56 pm63 °FSunny.3 mph41%30.03 "Hg10 mi
2:56 pm64 °FSunny.5 mph38%30.04 "Hg10 mi
1:56 pm62 °FSunny.5 mph43%30.07 "Hg10 mi
12:56 pm59 °FSunny.6 mph42%30.09 "Hg10 mi
11:56 am59 °FSunny.6 mph41%30.11 "Hg10 mi
10:56 am54 °FSunny.No wind57%30.12 "Hg10 mi
9:56 am52 °FSunny.No wind61%30.13 "Hg10 mi
8:56 am46 °FSunny.6 mph71%30.14 "Hg10 mi
7:56 am40 °FSunny.No wind83%30.12 "Hg10 mi
6:56 am38 °FClear.No wind83%30.11 "Hg10 mi
5:56 am40 °FClear.3 mph83%30.11 "Hg10 mi
4:56 am41 °FClear.3 mph80%30.09 "Hg10 mi
3:56 am39 °FClear.3 mph82%30.06 "Hg10 mi
2:56 am42 °FClear.No wind79%30.05 "Hg10 mi
1:56 am44 °FClear.No wind73%30.06 "Hg10 mi
12:56 am47 °FClear.No wind66%30.07 "Hg10 mi
Weather by CustomWeather, © 2019

See weather overview